Location: Crouzilles
(47.1232°N, 0.4599°E)
Time: 00:15:17
(UTC+00:00)

Daily predictions for brighter satellites

Satellite Brightness Start Highest point End
(mag) Time Altitude Azimuth Time Altitude Azimuth Time Altitude Azimuth
ACS3 Solar Sail 4.3 02:02:16 10° NE 02:03:45 14° ENE 02:03:45 14° ENE
Cosmos 2219 Rocket 4.2 02:55:06 24° ENE 02:55:06 24° ENE 02:57:50 10° NE
USA 267 3.6 03:14:52 10° NE 03:20:18 61° E 03:20:18 61° E
H-2A R/B 4.4 03:27:24 10° NNE 03:28:04 14° NNE 03:28:04 14° NNE
Cosmos 2278 Rocket 4.2 03:29:48 17° N 03:32:35 23° NE 03:37:02 10° E
Cosmos 2333 Rocket 3.8 03:39:30 27° N 03:39:30 27° N 03:42:07 10° NNE
COSMOS 2455 3.7 03:45:06 41° N 03:45:06 41° N 03:49:04 10° NNE
ACS3 Solar Sail 2.4 03:43:56 10° N 03:47:53 44° N 03:47:53 44° N
CENTAUR R/B 4.5 03:52:18 20° NNW 03:55:19 25° NNE 04:02:05 10° ENE
Cosmos 2360 Rocket 3.3 03:59:09 33° N 03:59:09 33° N 04:02:28 10° NNE
Cosmos 2322 Rocket 3.4 03:59:31 30° N 03:59:31 30° N 04:02:38 10° NNE
USA 234 3.1 03:51:45 10° SE 03:58:19 85° SW 03:58:53 76° WNW
Gbstr 26 Del rocket 4.2 03:59:16 44° SE 03:59:16 44° SE 04:04:25 10° ENE
SL-16 R/B 3.9 04:06:02 20° N 04:06:02 20° N 04:08:18 10° N
Cosmos 44 Rocket 3.9 04:05:02 52° NNE 04:05:33 54° NE 04:10:36 10° SE
Cosmos 1943 Rocket 3.4 04:06:17 18° N 04:09:56 39° NE 04:15:03 10° ESE
Okean 1-7 4.4 04:13:10 31° NNE 04:13:10 31° NNE 04:15:27 10° NNE
ARGOS 3.0 04:10:19 10° NNE 04:15:47 85° WNW 04:16:17 74° SSW
PAYLOAD A 4.2 04:11:10 10° NNE 04:16:36 74° ESE 04:20:30 19° S
Cosmos 1140 Rocket 3.9 04:15:56 31° N 04:18:17 60° ENE 04:23:20 10° SE
Timation 2 Rocket 4.5 04:14:49 18° NNW 04:19:59 63° ENE 04:26:20 10° SE
CZ-2C R/B 2.3 04:16:05 10° NNE 04:21:06 86° WNW 04:21:33 75° SSW
Cosmos 1809 Rocket 4.3 04:17:00 10° S 04:23:07 89° E 04:29:14 10° N
ADEOS Rocket 3.6 04:20:01 10° N 04:25:40 44° NW 04:25:40 44° NW
NOSS 3-1 (C) 3.0 04:27:24 54° SSW 04:28:28 76° SE 04:34:04 10° NE
SJ 16-02 4.2 04:29:53 10° NNE 04:31:55 13° NE 04:33:56 10° E
Cosmos 2100 Rocket 3.9 04:26:16 10° N 04:32:28 89° E 04:38:38 10° S
Cosmos 2219 Rocket 2.5 04:36:50 44° NW 04:36:50 44° NW 04:42:03 10° NNE
SL-24 R/B - RUBIN 2 4.1 04:39:23 52° NW 04:39:34 52° NW 04:44:24 10° NNE
IRS-1D 4.3 04:36:17 10° NNE 04:41:07 49° E 04:45:53 10° S
COSMOS 2428 2.6 04:41:30 14° SSW 04:46:23 88° ESE 04:52:08 10° NNE
USA 59 Rocket 0.0 04:50:47 43° NNE 04:50:47 43° NNE 04:52:57 10° NE
SL-08 RB Rocket 3.7 04:48:14 10° N 04:52:41 53° WNW 04:53:29 46° WSW
Cosmos 1459 Rocket 3.9 04:47:19 10° NNW 04:53:41 73° W 04:59:58 10° S
Cosmos 2322 3.6 04:50:01 21° SW 04:53:52 73° WNW 04:59:34 10° NNE
Cosmos 1864 Rocket 4.5 04:48:16 10° N 04:54:35 89° E 05:00:55 10° S
FengYun 1-2 T 4.2 04:52:09 10° NNE 04:57:44 88° ESE 05:03:20 10° SSW
COSMO-SKYMED 1 3.3 04:54:32 10° SE 04:58:31 49° ENE 05:02:30 10° N
Meteor 2-21 4.3 04:52:43 10° SSW 04:58:46 68° WNW 05:04:51 10° N
SKYMED 2 3.8 04:55:28 10° SSE 04:59:46 72° ENE 05:04:08 10° N
Cosmos 407 Rocket 3.6 04:55:08 10° NNW 05:00:16 72° ENE 05:05:21 10° SSE
Cosmos 1023 Rocket 4.4 04:58:45 27° NW 05:01:21 56° WSW 05:06:16 10° S
Cosmos 1727 Rocket 4.1 04:55:27 10° SSW 05:01:23 48° WNW 05:07:24 10° N
Cosmos 2228 Rocket 3.8 05:03:29 33° NW 05:03:29 33° NW 05:06:41 10° N
Cosmos 1725 Rocket 4.0 04:57:46 10° N 05:04:08 86° W 05:10:27 10° S
USA 267 3.6 04:58:00 10° NE 05:04:16 51° NNW 05:07:39 27° W
Cosmos 1980 4.3 05:00:41 10° S 05:06:13 60° ESE 05:11:47 10° NNE
H-2A R/B 4.1 05:08:22 10° NNW 05:08:34 11° NNW 05:08:34 11° NNW
Cosmos 1802 Rocket 3.9 05:05:40 10° NNW 05:12:01 70° W 05:18:15 10° S
Cosmos 1269 Rocket 4.3 05:09:27 23° NW 05:12:21 43° WSW 05:17:19 10° S
NOSS 3-1 (A) 3.2 05:08:01 10° SSW 05:12:38 69° SE 05:18:12 10° NE
Cosmos 2233 Rocket 4.1 05:08:59 10° N 05:15:21 81° E 05:21:38 10° S
Cosmos 1328 3.7 05:12:07 10° SSW 05:15:40 49° WNW 05:19:13 10° N
Cosmos 1703 Rocket 3.5 05:12:44 10° SSW 05:17:02 63° WNW 05:21:24 10° N
Cosmos 2278 Rocket 2.1 05:11:40 10° NNW 05:17:15 74° WSW 05:22:53 10° SSE
Cosmos 2251 Rocket 4.1 05:13:46 10° NNW 05:19:05 60° ENE 05:24:23 10° SE
NOSS 2-1 (E) 3.0 05:18:52 37° W 05:19:47 48° NW 05:22:48 10° NNE
CZ-3 R/B 4.1 05:13:37 10° SW 05:20:17 16° S 05:24:19 10° SSE
Lacrosse 5 rocket 2.8 05:20:39 16° NNW 05:21:15 16° N 05:23:31 10° NE
Meteor 2-16 Rocket 4.3 05:15:17 10° SSW 05:21:22 74° W 05:27:30 10° N
Cosmos 1939 Rocket 3.3 05:18:25 10° N 05:21:56 34° WNW 05:23:42 22° WSW
Cosmos 2333 Rocket 3.9 05:21:32 14° NW 05:22:05 14° NW 05:25:08 10° N
Cosmos 2237 Rocket 2.4 05:16:49 10° SSW 05:22:28 74° ESE 05:28:07 10° NNE
Cosmos 2173 Rocket 4.3 05:17:15 10° NNW 05:22:52 41° W 05:28:29 10° SSW
SL-08 R/B 4.4 05:20:08 10° NNW 05:26:14 74° W 05:32:22 10° S
Cosmos 2292 Rocket 3.6 05:23:19 10° SSW 05:27:28 74° W 05:32:54 10° N
BlueWalker 3 2.6 05:27:40 26° W 05:28:51 34° SW 05:32:07 10° SSE
USA 276 3.2 05:29:39 21° SW 05:29:52 21° SSW 05:32:04 10° SSE
COSMOS 2455 4.3 05:28:15 17° NW 05:30:12 19° NNW 05:34:26 10° NNE
ACS3 Solar Sail 3.2 05:28:38 10° NNW 05:32:02 16° NW 05:32:02 16° NW
Meteor 1-24 Rocket 3.8 05:26:32 10° SSW 05:32:10 52° WNW 05:37:38 10° N
Helios 1A Rocket 2.7 05:29:40 10° S 05:32:57 45° W 05:36:14 10° NNW
Cosmos 2369 Rocket 4.0 05:29:53 10° N 05:34:44 28° NE 05:39:35 10° ESE
CZ-4 R/B 3.9 05:31:40 10° N 05:36:30 59° WNW 05:41:13 10° SSW
Cosmos 1782 Rocket 3.5 05:34:08 10° NNW 05:38:29 60° W 05:42:46 10° S
USA 234 4.3 05:36:31 10° S 05:41:55 27° SW 05:46:14 14° WNW
Cosmos 2360 Rocket 3.9 05:40:55 12° NW 05:42:16 13° NW 05:44:59 10° N
Cosmos 2322 Rocket 4.0 05:41:20 12° NW 05:42:41 12° NNW 05:45:00 10° N
Cosmos 2123 Rocket 4.3 05:37:01 10° SW 05:42:54 44° WNW 05:48:48 10° N
Meteor 2-5 Rocket 4.0 05:37:39 10° SSW 05:43:21 48° WNW 05:49:01 10° N
Cosmos 1420 Rocket 4.1 05:39:23 10° SSW 05:44:37 81° ESE 05:49:57 10° NNE
Gbstr 26 Del rocket 3.7 05:41:19 15° W 05:45:30 68° NNW 05:51:44 10° ENE
NOAA 12 4.2 05:40:34 10° N 05:45:48 58° WNW 05:51:00 10° SSW
Cosmos 44 Rocket 4.4 05:43:41 16° WNW 05:46:42 27° WSW 05:50:59 10° S
CENTAUR R/B 4.1 05:40:28 10° NW 05:48:04 46° NE 05:56:50 10° ESE
Cosmos 1943 Rocket 2.7 05:48:35 10° NW 05:53:37 37° WSW 05:58:36 10° S
Cosmos 2016 Rocket 4.4 05:48:17 10° NNW 05:54:10 41° W 06:00:02 10° SSW
Cosmos 1812 2.8 05:54:34 10° N 05:57:27 53° ENE 06:00:19 10° SSE
CZ-2C R/B 4.1 05:55:50 10° NNW 05:58:26 14° WNW 06:00:45 11° W
Cosmos 1300 Rocket 4.2 05:54:58 10° NNW 05:58:52 33° W 06:02:44 10° SSW
SMAP 4.4 05:55:38 10° NNE 06:00:07 44° E 06:04:33 10° S
Cosmos 2346 Rocket 4.4 05:55:23 10° SSW 06:01:33 75° W 06:07:40 10° N
NOSS 2-1 (C) 4.4 06:00:52 13° WNW 06:02:36 18° NW 06:04:47 10° N
NOSS 2-1 (D) 4.5 06:04:54 11° WNW 06:06:38 16° NW 06:08:37 10° N
SJ 16-02 1.3 06:06:22 10° NNW 06:10:42 86° WSW 06:14:58 10° SSE
Iridium 4 Rocket 4.2 06:08:13 10° NNW 06:11:29 21° W 06:14:37 10° SW
Aureole 3 Rocket 3.4 06:07:32 10° NNW 06:11:48 73° W 06:17:44 10° S
Cosmos 2061 Rocket 4.4 06:08:48 10° NNW 06:14:35 42° W 06:20:19 10° SSW
CBERS-1 4.0 06:10:49 10° NNE 06:15:57 78° WNW 06:21:04 10° SSW
SWARM A 4.1 06:13:20 10° S 06:16:38 74° W 06:19:58 10° N
Cosmos 1378 Rocket 3.6 06:14:57 10° S 06:19:12 84° E 06:23:31 10° N
NOSS 3-1 (C) 4.2 06:15:32 10° W 06:19:52 27° NNW 06:25:02 10° NNE
IRS-1D 4.5 06:16:00 10° N 06:19:57 24° WNW 06:23:53 10° WSW
Cosmos 1190 Rocket 4.2 06:15:03 10° NNW 06:20:11 52° WSW 06:25:14 10° S
SL-16 R/B 2.9 06:15:07 10° SSW 06:20:43 63° ESE 06:26:21 10° NNE
Cosmos 676 Rocket 4.0 06:15:57 10° NNW 06:21:14 82° WSW 06:26:26 10° SSE
In-Cosmos 22 Rocket 4.3 06:15:48 10° SSW 06:21:37 77° WNW 06:27:28 10° N
